This is the latest recevied weather packets stored in our database for station/object K0QED. If no packets are shown the sender has not sent any weather packets the latest 10 day(s).
| Time | Temp. | Humidity | Pressure | Rain* | Wind** | Luminosity | Snow |
|---|---|---|---|---|---|---|---|
| 1777101074 | 0° C | 85% | 1012.1 hPa | 0 mm | - | 0 W/m² | - |
| 1777100768 | 0° C | 84% | 1012.1 hPa | 0 mm | - | 0 W/m² | - |
| 1777100465 | 0° C | 84% | 1012 hPa | 0 mm | - | 0 W/m² | - |
| 1777100163 | 0° C | 83% | 1012 hPa | 0 mm | - | 0 W/m² | - |
| 1777099860 | 0.56° C | 82% | 1012.4 hPa | 0 mm | - | 0 W/m² | - |
| 1777099559 | 0.56° C | 82% | 1012.1 hPa | 0 mm | - | 0 W/m² | - |
| 1777099257 | 0.56° C | 81% | 1012.5 hPa | 0 mm | - | 0 W/m² | - |
| 1777098954 | 0.56° C | 81% | 1012.2 hPa | 0 mm | - | 0 W/m² | - |
| 1777098650 | 0.56° C | 81% | 1012.5 hPa | 0 mm | - | 0 W/m² | - |
| 1777098346 | 0.56° C | 81% | 1012.1 hPa | 0 mm | - | 0 W/m² | - |
| 1777098044 | 1.11° C | 80% | 1012.6 hPa | 0 mm | - | 0 W/m² | - |
| 1777097741 | 1.11° C | 79% | 1012.2 hPa | 0 mm | - | 0 W/m² | - |
| 1777097437 | 1.11° C | 79% | 1012.5 hPa | 0 mm | - | 0 W/m² | - |
| 1777097135 | 1.11° C | 78% | 1012.5 hPa | 0 mm | - | 0 W/m² | - |
| 1777096831 | 1.11° C | 77% | 1012.6 hPa | 0 mm | - | 0 W/m² | - |
| 1777096530 | 1.11° C | 77% | 1012.6 hPa | 0 mm | - | 0 W/m² | - |
| 1777096226 | 1.11° C | 76% | 1012.7 hPa | 0 mm | - | 0 W/m² | - |
| 1777095926 | 1.67° C | 74% | 1012.4 hPa | 0 mm | - | 0 W/m² | - |
| 1777095621 | 1.67° C | 73% | 1012.6 hPa | 0 mm | - | 0 W/m² | - |
| 1777095319 | 1.67° C | 73% | 1012.4 hPa | 0 mm | - | 0 W/m² | - |
| 1777095014 | 2.22° C | 73% | 1012.4 hPa | 0 mm | - | 0 W/m² | - |
| 1777094709 | 2.78° C | 71% | 1012.4 hPa | 0 mm | - | 0 W/m² | - |
| 1777094409 | 2.78° C | 68% | 1012.5 hPa | 0 mm | - | 0 W/m² | - |
| 1777094103 | 2.78° C | 67% | 1012.6 hPa | 0 mm | - | 0 W/m² | - |
| 1777093799 | 3.33° C | 67% | 1012.4 hPa | 0 mm | - | 0 W/m² | - |
* Rain latest hour (hover to see other rain measurements)
** Current wind speed in m/s (hover to see current wind gust speed)